QPF
0.00 0.00 0.00 0.00 0.00 0.00 0.00 0.00 0.00 0.00 0.00 0.00 0.00 0.00 0.00 0.00 0.00 0.00 0.00 0.00 0.00 0.00 0.00 0.00 0.00 0.00 0.00 0.00 0.00 0.00 0.00 0.00 0.00 0.00 0.00 0.00 0.00 0.00 0.00 0.00 0.00 0.00 0.00 0.00 0.00 0.00 0.00 0.00 0.00 0.00 0.00 0.00 0.00 0.00 0.00 0.00 0.00 0.00 0.00 0.00 0.00 0.00 0.00
0.00 0.00 0.00 0.00 0.00 0.00 0.00 0.00 0.00 0.00 0.00 0.00 0.00 0.00 0.00 0.00 0.00 0.00 0.00 0.00 0.00 0.00 0.00 0.00 0.00 0.00 0.00 0.00 0.00 0.00 0.00 0.00 0.00 0.00 0.00 0.00 0.00 0.00 0.00 0.00 0.00 0.00 0.00 0.00 0.00 0.00 0.00 0.00 0.00 0.00 0.00 0.00 0.00 0.00 0.00 0.00 0.00 0.00 0.00 0.00 0.00 0.00 0.00
0.00 0.00 0.00 0.00 0.00 0.00 0.00 0.00 0.00 0.00 0.00 0.00 0.00 0.00 0.00 0.00 0.00 0.00 0.00 0.00 0.00 0.00 0.00 0.00 0.00 0.00 0.00 0.00 0.00 0.00 0.00 0.00 0.00 0.00 0.00 0.00 0.00 0.00 0.00 0.00 0.00 0.00 0.00 0.00 0.00 0.00 0.00 0.00 0.00 0.00 0.00 0.00 0.00 0.00 0.00 0.00 0.00 0.00 0.00 0.00 0.00 0.00 0.00
0.00 0.00 0.00 0.00 0.00 0.00 0.00 0.00 0.00 0.00 0.00 0.00 0.00 0.00 0.00 0.00 0.00 0.00 0.00 0.00 0.00 0.00 0.00 0.00 0.00 0.00 0.00 0.00 0.00 0.00 0.00 0.00 0.00 0.00 0.00 0.00 0.00 0.00 0.00 0.00 0.00 0.00 0.00 0.00 0.00 0.00 0.00 0.00 0.00 0.00 0.00 0.00 0.00 0.00 0.00 0.00 0.00 0.00 0.00 0.00 0.00 0.00 0.00
0.00 0.00 0.00 0.00 0.00 0.00 0.00 0.00 0.00 0.00 0.00 0.00 0.00 0.00 0.00 0.00 0.00 0.00 0.00 0.00 0.00 0.00 0.00 0.00 0.00 0.00 0.00 0.00 0.00 0.00 0.00 0.00 0.00 0.00 0.00 0.00 0.00 0.00 0.00 0.00 0.00 0.00 0.00 0.00 0.00 0.00 0.00 0.00 0.00 0.00 0.00 0.00 0.00 0.00 0.00 0.00 0.00 0.00 0.00 0.00 0.00 0.00 0.00
0.00 0.00 0.00 0.00 0.00 0.00 0.00 0.00 0.00 0.00 0.00 0.00 0.00 0.00 0.00 0.00 0.00 0.00 0.00 0.00 0.00 0.00 0.00 0.00 0.00 0.00 0.00 0.00 0.00 0.00 0.00 0.00 0.00 0.00 0.00 0.00 0.00 0.00 0.00 0.00 0.00 0.00 0.00 0.00 0.00 0.00 0.00 0.00 0.00 0.00 0.00 0.00 0.00 0.00 0.00 0.00 0.00 0.00 0.00 0.00 0.00 0.00 0.00
0.00 0.00 0.00 0.00 0.00 0.00 0.00 0.00 0.00 0.00 0.00 0.00 0.00 0.00 0.00 0.00 0.00 0.00 0.00 0.00 0.00 0.00 0.00 0.00 0.00 0.00 0.00 0.00 0.00 0.00 0.00 0.00 0.00 0.00 0.00 0.00 0.00 0.00 0.00 0.00 0.00 0.00 0.00 0.00 0.00 0.00 0.00 0.00 0.00 0.00 0.00 0.00 0.00 0.00 0.00 0.00 0.00 0.00 0.00 0.00 0.00 0.00 0.00
0.00 0.00 0.00 0.00 0.00 0.00 0.00 0.00 0.00 0.00 0.00 0.00 0.00 0.00 0.00 0.00 0.00 0.00 0.00 0.00 0.00 0.00 0.00 0.00 0.00 0.00 0.00 0.00 0.00 0.00 0.00 0.00 0.00 0.00 0.00 0.00 0.00 0.00 0.00 0.00 0.00 0.00 0.00 0.00 0.00 0.00 0.00 0.00 0.00 0.00 0.00 0.00 0.00 0.00 0.00 0.00 0.00 0.00 0.00 0.00 0.00 0.00 0.00
0.00 0.00 0.00 0.00 0.00 0.00 0.00 0.00 0.00 0.00 0.00 0.00 0.00 0.00 0.00 0.00 0.00 0.00 0.00 0.00 0.00 0.00 0.00 0.00 0.00 0.00 0.00 0.00 0.00 0.00 0.00 0.00 0.00 0.00 0.00 0.00 0.00 0.00 0.00 0.00 0.00 0.00 0.00 0.00 0.00 0.00 0.00 0.00 0.00 0.00 0.00 0.00 0.00 0.00 0.00 0.00 0.00 0.00 0.00 0.00 0.00 0.00 0.00
0.00 0.00 0.00 0.00 0.00 0.00 0.00 0.00 0.00 0.00 0.00 0.00 0.00 0.00 0.00 0.00 0.00 0.00 0.00 0.00 0.00 0.00 0.00 0.00 0.00 0.00 0.00 0.00 0.00 0.00 0.00 0.00 0.00 0.00 0.00 0.00 0.00 0.00 0.00 0.00 0.00 0.00 0.00 0.00 0.00 0.00 0.00 0.00 0.00 0.00 0.00 0.00 0.00 0.00 0.00 0.00 0.00 0.00 0.00 0.00 0.00 0.00 0.00
0.00 0.00 0.00 0.00 0.00 0.00 0.00 0.00 0.00 0.00 0.00 0.00 0.00 0.00 0.00 0.00 0.00 0.00 0.00 0.00 0.00 0.00 0.00 0.00 0.00 0.00 0.00 0.00 0.00 0.00 0.00 0.00 0.00 0.00 0.00 0.00 0.00 0.00 0.00 0.00 0.00 0.00 0.00 0.00 0.00 0.00 0.00 0.00 0.00 0.00 0.00 0.00 0.00 0.00 0.00 0.00 0.00 0.00 0.00 0.00 0.00 0.00 0.00
0.00 0.00 0.00 0.00 0.00 0.00 0.00 0.00 0.00 0.00 0.00 0.00 0.00 0.00 0.00 0.00 0.00 0.00 0.00 0.00 0.00 0.00 0.00 0.00 0.00 0.00 0.00 0.00 0.00 0.00 0.00 0.00 0.00 0.00 0.00 0.00 0.00 0.00 0.00 0.00 0.00 0.00 0.00 0.00 0.00 0.00 0.00 0.00 0.00 0.00 0.00 0.00 0.00 0.00 0.00 0.00 0.00 0.00 0.00 0.00 0.00 0.00 0.00
0.00 0.00 0.00 0.00 0.00 0.00 0.00 0.00 0.00 0.00 0.00 0.00 0.00 0.00 0.00 0.00 0.00 0.00 0.00 0.00 0.00 0.00 0.00 0.00 0.00 0.00 0.00 0.00 0.00 0.00 0.00 0.00 0.00 0.00 0.00 0.00 0.00 0.00 0.00 0.00 0.00 0.00 0.00 0.00 0.00 0.00 0.00 0.00 0.00 0.00 0.00 0.00 0.00 0.00 0.00 0.00 0.00 0.00 0.00 0.00 0.00 0.00 0.00
0.00 0.00 0.00 0.00 0.00 0.00 0.00 0.00 0.00 0.00 0.00 0.00 0.00 0.00 0.00 0.00 0.00 0.00 0.00 0.00 0.00 0.00 0.00 0.00 0.00 0.00 0.00 0.00 0.00 0.00 0.00 0.00 0.00 0.00 0.00 0.00 0.00 0.00 0.00 0.00 0.00 0.00 0.00 0.00 0.00 0.00 0.00 0.00 0.00 0.00 0.00 0.00 0.00 0.00 0.00 0.00 0.00 0.00 0.00 0.00 0.00 0.00 0.00
0.00 0.00 0.00 0.00 0.00 0.00 0.00 0.00 0.00 0.00 0.00 0.00 0.00 0.00 0.00 0.00 0.00 0.00 0.00 0.00 0.00 0.00 0.00 0.00 0.00 0.00 0.00 0.00 0.00 0.00 0.00 0.00 0.00 0.00 0.00 0.00 0.00 0.00 0.00 0.00 0.00 0.00 0.00 0.00 0.00 0.00 0.00 0.00 0.00 0.00 0.00 0.00 0.00 0.00 0.00 0.00 0.00 0.00 0.00 0.00 0.00 0.00 0.00
0.00 0.00 0.00 0.00 0.00 0.00 0.00 0.00 0.00 0.00 0.00 0.00 0.00 0.00 0.00 0.00 0.00 0.00 0.00 0.00 0.00 0.00 0.00 0.00 0.00 0.00 0.00 0.00 0.00 0.00 0.00 0.00 0.00 0.00 0.00 0.00 0.00 0.00 0.00 0.00 0.00 0.00 0.00 0.00 0.00 0.00 0.00 0.00 0.00 0.00 0.00 0.00 0.00 0.00 0.00 0.00 0.00 0.00 0.00 0.00 0.00 0.00 0.00
0.00 0.00 0.00 0.00 0.00 0.00 0.00 0.00 0.00 0.00 0.00 0.00 0.00 0.00 0.00 0.00 0.00 0.00 0.00 0.00 0.00 0.00 0.00 0.00 0.00 0.00 0.00 0.00 0.00 0.00 0.00 0.00 0.00 0.00 0.00 0.00 0.00 0.00 0.00 0.00 0.00 0.00 0.00 0.00 0.00 0.00 0.00 0.00 0.00 0.00 0.00 0.00 0.00 0.00 0.00 0.00 0.00 0.00 0.00 0.00 0.00 0.00 0.00
0.00 0.00 0.00 0.00 0.00 0.00 0.00 0.00 0.00 0.00 0.00 0.00 0.00 0.00 0.00 0.00 0.00 0.00 0.00 0.00 0.00 0.00 0.00 0.00 0.00 0.00 0.00 0.00 0.00 0.00 0.00 0.00 0.00 0.00 0.00 0.00 0.00 0.00 0.00 0.00 0.00 0.00 0.00 0.00 0.00 0.00 0.00 0.00 0.00 0.00 0.00 0.00 0.00 0.00 0.00 0.00 0.00 0.00 0.00 0.00 0.00 0.00 0.00
0.00 0.00 0.00 0.00 0.00 0.00 0.00 0.00 0.00 0.00 0.00 0.00 0.00 0.00 0.00 0.00 0.00 0.00 0.00 0.00 0.00 0.00 0.00 0.00 0.00 0.00 0.00 0.00 0.00 0.00 0.00 0.00 0.00 0.00 0.00 0.00 0.00 0.00 0.00 0.00 0.00 0.00 0.00 0.00 0.00 0.00 0.00 0.00 0.00 0.00 0.00 0.00 0.00 0.00 0.00 0.00 0.00 0.00 0.00 0.00 0.00 0.00 0.00
0.00 0.00 0.00 0.00 0.00 0.00 0.00 0.00 0.00 0.00 0.00 0.00 0.00 0.00 0.00 0.00 0.00 0.00 0.00 0.00 0.00 0.00 0.00 0.00 0.00 0.00 0.00 0.00 0.00 0.00 0.00 0.00 0.00 0.00 0.00 0.00 0.00 0.00 0.00 0.00 0.00 0.00 0.00 0.00 0.00 0.00 0.00 0.00 0.00 0.00 0.00 0.00 0.00 0.00 0.00 0.00 0.00 0.00 0.00 0.00 0.00 0.00 0.00
0.00 0.00 0.00 0.00 0.00 0.00 0.00 0.00 0.00 0.00 0.00 0.00 0.00 0.00 0.00 0.00 0.00 0.00 0.00 0.00 0.00 0.00 0.01 0.04 0.00 0.00 0.00 0.00 0.00 0.01 0.00 0.00 0.00 0.00 0.00 0.00 0.00 0.00 0.00 0.00 0.00 0.00 0.00 0.00 0.00 0.00 0.00 0.00 0.00 0.00 0.00 0.00 0.00 0.00 0.00 0.00 0.00 0.00 0.00 0.00 0.00 0.00 0.00
0.00 0.00 0.00 0.00 0.00 0.00 0.00 0.00 0.00 0.00 0.00 0.00 0.00 0.00 0.00 0.00 0.00 0.00 0.00 0.00 0.00 0.00 0.02 0.02 0.00 0.00 0.00 0.00 0.01 0.00 0.00 0.00 0.00 0.00 0.00 0.00 0.00 0.00 0.00 0.00 0.00 0.00 0.00 0.00 0.00 0.00 0.00 0.00 0.00 0.00 0.00 0.00 0.00 0.00 0.00 0.00 0.00 0.00 0.00 0.00 0.00 0.00 0.00
0.00 0.00 0.00 0.00 0.00 0.00 0.00 0.00 0.00 0.00 0.00 0.00 0.00 0.00 0.00 0.00 0.00 0.00 0.00 0.00 0.00 0.00 0.01 0.11 0.08 0.02 0.07 0.04 0.00 0.00 0.00 0.00 0.00 0.00 0.00 0.00 0.00 0.00 0.00 0.00 0.00 0.00 0.00 0.00 0.00 0.00 0.00 0.00 0.00 0.00 0.00 0.00 0.00 0.00 0.00 0.00 0.00 0.00 0.00 0.00 0.00 0.00 0.00
0.00 0.00 0.00 0.00 0.00 0.00 0.00 0.00 0.00 0.00 0.00 0.00 0.00 0.00 0.00 0.00 0.00 0.00 0.00 0.00 0.00 0.04 0.09 0.02 0.05 0.03 0.02 0.00 0.00 0.00 0.00 0.00 0.00 0.00 0.00 0.00 0.00 0.00 0.00 0.00 0.00 0.00 0.00 0.00 0.00 0.00 0.00 0.00 0.01 0.01 0.00 0.00 0.00 0.00 0.00 0.00 0.00 0.00 0.00 0.00 0.00 0.00 0.00
0.00 0.00 0.00 0.00 0.00 0.00 0.00 0.00 0.00 0.00 0.00 0.00 0.00 0.00 0.00 0.00 0.00 0.00 0.00 0.00 0.00 0.02 0.10 0.01 0.01 0.00 0.00 0.00 0.00 0.00 0.00 0.00 0.00 0.00 0.00 0.00 0.00 0.00 0.00 0.01 0.04 0.00 0.01 0.00 0.03 0.02 0.01 0.01 0.01 0.04 0.28 0.25 0.08 0.00 0.00 0.00 0.00 0.00 0.00 0.00 0.00 0.00 0.00
0.00 0.00 0.00 0.00 0.00 0.00 0.00 0.00 0.00 0.00 0.00 0.00 0.00 0.00 0.00 0.00 0.05 0.04 0.02 0.00 0.01 0.02 0.00 0.00 0.00 0.00 0.00 0.00 0.00 0.00 0.00 0.00 0.00 0.00 0.00 0.00 0.00 0.00 0.00 0.09 0.06 0.03 0.02 0.07 0.07 0.02 0.02 0.17 0.30 0.30 0.28 0.17 0.04 0.01 0.00 0.00 0.00 0.00 0.00 0.00 0.00 0.00 0.00
0.00 0.00 0.00 0.00 0.00 0.00 0.00 0.00 0.00 0.00 0.00 0.00 0.00 0.00 0.01 0.07 0.23 0.53 0.37 0.12 0.02 0.00 0.01 0.00 0.00 0.00 0.00 0.00 0.00 0.00 0.00 0.00 0.00 0.00 0.00 0.00 0.01 0.02 0.01 0.05 0.08 0.12 0.31 0.19 0.26 0.27 0.31 0.34 0.31 0.20 0.11 0.11 0.01 0.01 0.00 0.01 0.04 0.04 0.00 0.00 0.00 0.00 0.00
0.00 0.00 0.00 0.00 0.00 0.00 0.00 0.00 0.00 0.00 0.00 0.04 0.22 0.30 0.32 0.51 0.76 0.72 0.35 0.33 0.21 0.08 0.00 0.00 0.00 0.00 0.00 0.00 0.00 0.00 0.00 0.00 0.00 0.00 0.00 0.00 0.06 0.01 0.01 0.01 0.06 0.14 0.15 0.19 0.33 0.12 0.19 0.33 0.18 0.14 0.07 0.08 0.03 0.14 0.19 0.12 0.05 0.01 0.00 0.00 0.00 0.00 0.00
0.00 0.00 0.00 0.00 0.00 0.00 0.00 0.00 0.00 0.00 0.21 0.45 0.43 0.47 0.68 0.71 0.63 0.50 0.47 0.31 0.09 0.01 0.00 0.00 0.00 0.00 0.00 0.00 0.00 0.00 0.00 0.00 0.00 0.00 0.00 0.00 0.00 0.01 0.01 0.02 0.09 0.06 0.06 0.04 0.03 0.10 0.22 0.12 0.16 0.26 0.21 0.16 0.24 0.11 0.11 0.15 0.03 0.00 0.00 0.00 0.00 0.00 0.00
0.00 0.00 0.00 0.00 0.00 0.00 0.00 0.00 0.00 0.06 0.27 0.54 0.57 0.59 0.61 0.56 0.50 0.52 0.32 0.13 0.04 0.01 0.00 0.00 0.00 0.00 0.00 0.00 0.00 0.00 0.00 0.00 0.00 0.00 0.00 0.00 0.00 0.00 0.01 0.04 0.14 0.12 0.00 0.00 0.00 0.00 0.01 0.05 0.07 0.13 0.18 0.17 0.18 0.22 0.16 0.06 0.01 0.00 0.00 0.00 0.00 0.00 0.00
0.00 0.00 0.00 0.00 0.00 0.00 0.00 0.00 0.00 0.00 0.00 0.20 0.51 0.50 0.50 0.53 0.46 0.38 0.22 0.06 0.00 0.01 0.00 0.00 0.00 0.00 0.00 0.00 0.00 0.00 0.00 0.00 0.00 0.00 0.00 0.00 0.00 0.01 0.03 0.09 0.02 0.00 0.00 0.00 0.00 0.00 0.00 0.00 0.01 0.07 0.09 0.21 0.16 0.12 0.00 0.00 0.00 0.00 0.00 0.00 0.00 0.00 0.00
0.00 0.00 0.00 0.00 0.00 0.00 0.00 0.00 0.00 0.00 0.00 0.06 0.26 0.50 0.48 0.46 0.39 0.22 0.14 0.20 0.06 0.02 0.06 0.09 0.05 0.00 0.00 0.00 0.00 0.00 0.00 0.00 0.00 0.00 0.00 0.00 0.00 0.00 0.01 0.00 0.00 0.00 0.00 0.00 0.00 0.00 0.00 0.00 0.01 0.01 0.06 0.04 0.01 0.00 0.00 0.00 0.00 0.00 0.00 0.00 0.00 0.00 0.00
0.00 0.00 0.00 0.00 0.00 0.00 0.00 0.00 0.00 0.00 0.00 0.00 0.23 0.62 0.91 0.61 0.59 0.88 0.91 0.32 0.17 0.12 0.01 0.08 0.07 0.00 0.00 0.00 0.00 0.00 0.00 0.00 0.00 0.00 0.00 0.00 0.00 0.00 0.00 0.00 0.00 0.00 0.00 0.00 0.00 0.00 0.00 0.00 0.00 0.00 0.00 0.03 0.00 0.00 0.00 0.00 0.00 0.00 0.00 0.00 0.00 0.00 0.00
0.00 0.00 0.00 0.00 0.00 0.00 0.00 0.00 0.00 0.00 0.00 0.00 0.12 0.23 0.30 0.45 0.25 0.12 0.06 0.21 0.21 0.02 0.00 0.00 0.00 0.00 0.00 0.00 0.00 0.00 0.00 0.00 0.00 0.00 0.00 0.00 0.00 0.00 0.00 0.00 0.00 0.00 0.00 0.00 0.00 0.00 0.00 0.00 0.00 0.00 0.00 0.00 0.00 0.00 0.00 0.00 0.00 0.00 0.00 0.00 0.01 0.02 0.08
0.00 0.00 0.00 0.00 0.00 0.00 0.00 0.00 0.00 0.00 0.00 0.00 0.07 0.14 0.03 0.06 0.03 0.01 0.04 0.01 0.00 0.00 0.00 0.00 0.00 0.00 0.00 0.00 0.00 0.00 0.00 0.00 0.00 0.00 0.00 0.00 0.00 0.00 0.00 0.00 0.00 0.00 0.00 0.00 0.00 0.00 0.00 0.00 0.00 0.00 0.00 0.00 0.00 0.00 0.00 0.00 0.00 0.00 0.00 0.00 0.00 0.08 0.21
0.00 0.00 0.00 0.00 0.00 0.00 0.00 0.00 0.00 0.00 0.00 0.00 0.00 0.03 0.05 0.01 0.01 0.00 0.00 0.00 0.00 0.01 0.01 0.01 0.01 0.00 0.00 0.00 0.00 0.00 0.00 0.00 0.00 0.00 0.00 0.00 0.00 0.00 0.00 0.00 0.00 0.00 0.00 0.00 0.00 0.00 0.00 0.00 0.00 0.00 0.01 0.01 0.00 0.00 0.00 0.00 0.00 0.00 0.00 0.00 0.00 0.00 0.00
0.00 0.00 0.00 0.00 0.00 0.00 0.00 0.00 0.00 0.00 0.00 0.00 0.00 0.00 0.00 0.00 0.00 0.00 0.01 0.05 0.03 0.02 0.01 0.00 0.00 0.00 0.00 0.00 0.00 0.00 0.00 0.00 0.00 0.00 0.00 0.00 0.00 0.00 0.00 0.00 0.00 0.00 0.00 0.00 0.00 0.00 0.00 0.00 0.00 0.00 0.00 0.00 0.00 0.00 0.00 0.00 0.00 0.00 0.02 0.01 0.00 0.00 0.00
0.00 0.00 0.00 0.00 0.00 0.00 0.00 0.00 0.00 0.00 0.00 0.00 0.00 0.00 0.00 0.00 0.02 0.05 0.06 0.02 0.02 0.01 0.02 0.01 0.00 0.00 0.00 0.00 0.00 0.00 0.00 0.00 0.00 0.00 0.00 0.00 0.00 0.00 0.00 0.00 0.00 0.00 0.00 0.00 0.00 0.00 0.00 0.00 0.00 0.00 0.00 0.00 0.00 0.00 0.00 0.00 0.00 0.00 0.00 0.00 0.00 0.00 0.00
MSLP
1008.22 1008.66 1008.82 1008.93 1009.29 1009.41 1009.66 1009.85 1010.02 1010.38 1010.70 1011.05 1011.26 1011.49 1011.82 1012.05 1012.34 1012.70 1013.17 1013.49 1013.82 1014.22 1014.34 1014.34 1014.46 1014.66 1014.90 1015.02 1015.14 1015.38 1015.53 1015.61 1015.73 1015.93 1016.09 1016.29 1016.41 1016.66 1016.85 1016.90 1016.90 1016.93 1016.93 1017.05 1017.14 1017.14 1017.09 1017.02 1017.05 1017.05 1017.05 1017.09 1017.05 1017.02 1016.97 1016.97 1017.05 1017.05 1017.05 1017.09 1017.17 1017.26 1017.29
1008.46 1008.58 1008.70 1008.73 1008.85 1009.02 1009.17 1009.26 1009.53 1009.90 1010.34 1010.61 1010.90 1011.14 1011.38 1011.66 1011.93 1012.38 1012.70 1013.02 1013.34 1013.66 1013.97 1014.09 1014.29 1014.49 1014.61 1014.78 1015.02 1015.29 1015.53 1015.58 1015.61 1015.66 1015.85 1016.09 1016.22 1016.38 1016.46 1016.66 1016.70 1016.82 1016.82 1016.78 1016.78 1016.82 1016.85 1016.90 1016.85 1016.97 1017.02 1016.93 1016.90 1016.82 1016.82 1016.85 1016.90 1016.93 1016.97 1017.02 1017.09 1017.14 1017.17
1008.22 1008.38 1008.38 1008.41 1008.49 1008.70 1008.97 1009.26 1009.38 1009.41 1009.85 1010.26 1010.61 1010.93 1011.05 1011.17 1011.29 1011.61 1012.17 1012.73 1013.17 1013.46 1013.73 1013.93 1014.02 1014.22 1014.38 1014.58 1014.90 1015.17 1015.26 1015.46 1015.61 1015.66 1015.82 1015.97 1016.09 1016.17 1016.26 1016.38 1016.49 1016.58 1016.53 1016.49 1016.53 1016.66 1016.66 1016.73 1016.70 1016.78 1016.82 1016.85 1016.78 1016.73 1016.66 1016.70 1016.70 1016.73 1016.78 1016.82 1016.90 1016.97 1017.02
1007.90 1007.93 1007.82 1007.53 1007.58 1007.85 1008.17 1008.46 1008.82 1009.09 1009.34 1009.53 1009.82 1010.05 1010.46 1010.73 1010.78 1011.05 1011.46 1011.97 1012.66 1013.22 1013.61 1013.70 1013.82 1014.05 1014.22 1014.46 1014.70 1014.90 1015.14 1015.22 1015.29 1015.46 1015.49 1015.58 1015.73 1015.90 1016.09 1016.26 1016.29 1016.34 1016.41 1016.38 1016.38 1016.46 1016.46 1016.49 1016.61 1016.70 1016.66 1016.70 1016.66 1016.58 1016.53 1016.53 1016.53 1016.58 1016.58 1016.66 1016.73 1016.73 1016.73
1007.34 1007.34 1007.70 1007.93 1008.05 1008.26 1008.49 1008.66 1008.78 1008.78 1008.97 1009.05 1009.22 1009.41 1009.66 1010.09 1010.53 1010.90 1011.26 1011.49 1011.90 1012.49 1012.78 1013.05 1013.29 1013.58 1013.85 1014.05 1014.29 1014.53 1014.78 1014.93 1015.14 1015.22 1015.26 1015.26 1015.34 1015.58 1015.82 1016.02 1016.14 1016.22 1016.17 1016.17 1016.26 1016.29 1016.38 1016.46 1016.53 1016.58 1016.58 1016.53 1016.53 1016.49 1016.46 1016.41 1016.41 1016.38 1016.41 1016.46 1016.61 1016.58 1016.58
1007.53 1007.73 1007.82 1007.73 1007.78 1007.90 1007.97 1008.14 1008.17 1008.29 1008.66 1009.05 1009.29 1009.58 1009.78 1010.02 1010.34 1010.70 1010.85 1011.26 1011.70 1012.09 1012.53 1012.93 1013.22 1013.38 1013.70 1013.78 1013.97 1014.29 1014.46 1014.61 1014.73 1014.93 1015.02 1015.09 1015.17 1015.41 1015.53 1015.66 1015.85 1015.97 1016.09 1016.14 1016.09 1016.17 1016.22 1016.26 1016.34 1016.41 1016.46 1016.41 1016.38 1016.38 1016.34 1016.38 1016.34 1016.29 1016.29 1016.34 1016.41 1016.41 1016.46
1007.09 1007.17 1007.29 1007.29 1007.34 1007.58 1007.78 1007.97 1008.02 1008.05 1008.05 1008.17 1008.49 1008.93 1009.49 1009.90 1010.09 1010.26 1010.61 1011.09 1011.38 1011.93 1012.41 1012.73 1012.90 1013.09 1013.34 1013.53 1013.82 1014.05 1014.29 1014.46 1014.61 1014.78 1014.78 1014.90 1014.97 1015.14 1015.22 1015.34 1015.46 1015.70 1015.78 1015.90 1016.05 1016.02 1016.14 1016.17 1016.14 1016.17 1016.22 1016.26 1016.29 1016.29 1016.26 1016.26 1016.29 1016.22 1016.22 1016.26 1016.34 1016.29 1016.22
1006.26 1006.82 1006.73 1006.73 1006.90 1007.05 1007.38 1007.58 1007.66 1007.73 1008.02 1008.38 1008.90 1009.29 1009.58 1009.66 1010.02 1010.38 1010.61 1010.70 1011.05 1011.58 1012.02 1012.34 1012.66 1012.82 1013.05 1013.38 1013.58 1013.78 1013.93 1014.17 1014.34 1014.49 1014.70 1014.82 1014.93 1015.02 1015.14 1015.17 1015.26 1015.38 1015.66 1015.85 1015.78 1015.82 1015.90 1015.97 1015.93 1015.97 1016.05 1016.17 1016.22 1016.17 1016.09 1016.05 1016.05 1016.05 1016.14 1016.26 1016.26 1016.17 1016.05
1005.49 1005.61 1006.09 1006.29 1006.41 1006.66 1006.85 1007.05 1007.26 1007.58 1007.93 1008.29 1008.49 1008.73 1009.02 1009.49 1009.73 1009.93 1010.17 1010.53 1010.85 1011.17 1011.58 1011.78 1012.17 1012.41 1012.78 1013.22 1013.41 1013.53 1013.61 1013.90 1014.17 1014.38 1014.58 1014.70 1014.73 1014.78 1014.85 1014.97 1015.05 1015.22 1015.49 1015.61 1015.61 1015.61 1015.73 1015.78 1015.82 1015.90 1015.93 1016.02 1016.02 1016.05 1016.02 1015.93 1015.90 1015.90 1016.02 1016.09 1016.09 1016.05 1015.97
1005.85 1006.22 1006.17 1005.93 1005.93 1006.14 1006.46 1006.78 1007.09 1007.61 1008.09 1008.41 1008.73 1009.02 1009.17 1009.17 1009.34 1009.66 1009.93 1010.14 1010.49 1010.93 1011.14 1011.49 1011.90 1012.34 1012.70 1012.97 1013.17 1013.29 1013.49 1013.78 1013.90 1014.09 1014.26 1014.38 1014.34 1014.38 1014.46 1014.66 1014.90 1015.02 1015.29 1015.34 1015.41 1015.53 1015.49 1015.53 1015.61 1015.66 1015.73 1015.82 1015.82 1015.85 1015.85 1015.82 1015.78 1015.78 1015.85 1015.90 1015.90 1015.90 1015.85
1005.58 1005.70 1006.09 1006.22 1006.38 1006.53 1006.78 1007.17 1007.53 1007.66 1007.78 1008.02 1008.22 1008.41 1008.66 1008.97 1009.22 1009.38 1009.66 1009.85 1010.17 1010.41 1010.66 1011.02 1011.46 1012.05 1012.41 1012.70 1013.09 1013.26 1013.38 1013.53 1013.61 1013.78 1013.97 1014.09 1014.14 1014.05 1014.09 1014.41 1014.66 1014.82 1015.02 1015.09 1015.22 1015.26 1015.34 1015.38 1015.34 1015.46 1015.53 1015.61 1015.58 1015.61 1015.70 1015.61 1015.58 1015.61 1015.66 1015.70 1015.66 1015.61 1015.61
1005.58 1005.93 1006.02 1006.02 1006.29 1006.66 1006.85 1006.85 1007.02 1007.29 1007.53 1007.70 1007.85 1008.05 1008.29 1008.58 1008.78 1009.02 1009.29 1009.46 1009.53 1010.05 1010.46 1010.78 1011.09 1011.61 1012.14 1012.49 1012.85 1013.05 1013.14 1013.17 1013.38 1013.49 1013.61 1013.78 1013.93 1013.90 1013.85 1014.14 1014.46 1014.66 1014.66 1014.73 1014.90 1014.93 1015.02 1015.05 1015.09 1015.14 1015.22 1015.26 1015.26 1015.26 1015.29 1015.34 1015.34 1015.38 1015.41 1015.46 1015.46 1015.49 1015.49
1005.26 1005.58 1005.73 1005.90 1006.05 1006.09 1006.38 1006.90 1007.05 1006.97 1007.05 1007.14 1007.38 1007.61 1007.85 1008.14 1008.46 1008.70 1009.02 1009.26 1009.29 1009.53 1010.02 1010.38 1010.82 1011.34 1011.85 1012.17 1012.49 1012.73 1012.78 1012.93 1013.09 1013.14 1013.34 1013.53 1013.61 1013.58 1013.66 1013.93 1014.17 1014.38 1014.49 1014.53 1014.66 1014.78 1014.85 1014.85 1014.90 1014.85 1014.90 1014.90 1014.90 1014.93 1014.97 1015.05 1015.09 1015.17 1015.26 1015.29 1015.34 1015.38 1015.41
1004.82 1005.38 1005.58 1005.61 1005.90 1006.26 1006.34 1006.29 1006.49 1006.82 1006.90 1007.05 1007.22 1007.29 1007.53 1007.66 1007.82 1008.14 1008.49 1008.85 1009.02 1009.34 1009.78 1010.14 1010.66 1011.14 1011.58 1011.90 1012.26 1012.38 1012.46 1012.61 1012.66 1012.82 1012.97 1013.17 1013.29 1013.38 1013.41 1013.66 1013.93 1014.09 1014.17 1014.34 1014.53 1014.66 1014.70 1014.70 1014.66 1014.61 1014.66 1014.66 1014.70 1014.70 1014.73 1014.90 1015.02 1015.09 1015.09 1015.09 1015.14 1015.17 1015.26
1004.90 1004.97 1005.34 1005.70 1005.66 1005.66 1005.73 1006.02 1006.22 1006.38 1006.58 1006.70 1006.90 1007.26 1007.38 1007.61 1007.82 1008.02 1008.29 1008.46 1008.70 1009.02 1009.38 1009.70 1010.34 1010.90 1011.26 1011.58 1011.93 1012.14 1012.14 1012.26 1012.38 1012.46 1012.66 1012.90 1013.02 1013.09 1013.22 1013.41 1013.66 1013.85 1013.97 1014.09 1014.22 1014.22 1014.26 1014.26 1014.38 1014.58 1014.66 1014.61 1014.53 1014.46 1014.49 1014.61 1014.70 1014.70 1014.82 1014.90 1014.93 1014.97 1015.02
1004.61 1004.49 1004.82 1005.29 1005.38 1005.34 1005.29 1005.26 1005.41 1005.70 1005.97 1006.38 1006.73 1006.93 1007.22 1007.41 1007.58 1007.70 1007.97 1008.22 1008.38 1008.70 1008.93 1009.41 1010.09 1010.58 1010.93 1011.34 1011.66 1011.73 1011.78 1011.90 1012.09 1012.29 1012.53 1012.78 1012.78 1012.82 1012.97 1013.22 1013.46 1013.58 1013.70 1013.78 1013.82 1013.90 1013.97 1014.09 1014.22 1014.38 1014.46 1014.41 1014.38 1014.38 1014.41 1014.49 1014.46 1014.41 1014.46 1014.49 1014.58 1014.70 1014.73
1004.46 1004.46 1004.49 1004.53 1004.85 1004.93 1004.85 1004.93 1005.02 1005.29 1005.73 1006.02 1006.22 1006.41 1006.58 1006.73 1006.85 1007.09 1007.41 1007.61 1007.90 1008.17 1008.38 1008.85 1009.61 1010.09 1010.53 1010.97 1011.02 1011.14 1011.38 1011.73 1012.05 1012.17 1012.41 1012.41 1012.41 1012.58 1012.85 1013.05 1013.22 1013.29 1013.41 1013.49 1013.58 1013.66 1013.73 1013.93 1014.14 1014.17 1014.09 1014.14 1014.22 1014.29 1014.29 1014.22 1014.17 1014.09 1014.22 1014.29 1014.26 1014.29 1014.41
1004.70 1004.70 1004.58 1004.49 1004.38 1004.41 1004.61 1004.66 1004.93 1005.26 1005.49 1005.61 1005.70 1005.85 1006.09 1006.41 1006.61 1006.85 1007.14 1007.26 1007.58 1007.73 1008.05 1008.58 1009.09 1009.61 1010.05 1010.29 1010.61 1010.93 1011.29 1011.46 1011.61 1011.97 1012.09 1012.14 1012.26 1012.38 1012.61 1012.82 1012.97 1013.05 1013.14 1013.26 1013.38 1013.38 1013.53 1013.78 1013.82 1013.82 1013.82 1013.85 1013.93 1014.02 1013.93 1013.85 1013.70 1013.73 1013.85 1013.97 1014.02 1014.05 1014.17
1004.38 1004.46 1004.46 1004.49 1004.58 1004.53 1004.34 1004.38 1004.46 1004.58 1004.78 1004.97 1005.26 1005.46 1005.41 1005.46 1006.05 1006.46 1006.53 1006.97 1007.05 1007.38 1007.97 1008.34 1008.73 1009.22 1009.73 1009.97 1010.29 1010.66 1011.02 1011.09 1011.41 1011.66 1011.82 1011.85 1011.93 1012.17 1012.49 1012.70 1012.82 1012.85 1012.97 1013.02 1013.02 1013.22 1013.46 1013.49 1013.58 1013.61 1013.58 1013.70 1013.78 1013.78 1013.61 1013.53 1013.29 1013.38 1013.53 1013.61 1013.70 1013.78 1013.93
1003.73 1003.93 1004.14 1004.17 1004.17 1004.17 1003.97 1003.90 1003.97 1004.05 1004.05 1004.26 1004.34 1004.38 1004.41 1004.78 1005.22 1005.46 1005.78 1006.29 1006.78 1007.22 1007.70 1008.17 1008.70 1008.93 1009.34 1009.73 1010.05 1010.29 1010.70 1010.93 1011.14 1011.41 1011.49 1011.58 1011.82 1012.09 1012.38 1012.58 1012.58 1012.53 1012.61 1012.78 1013.02 1013.17 1013.26 1013.29 1013.38 1013.41 1013.49 1013.58 1013.58 1013.49 1013.34 1013.26 1013.09 1013.14 1013.14 1013.17 1013.26 1013.38 1013.61
1003.29 1003.26 1003.26 1003.49 1003.78 1003.97 1004.09 1003.93 1003.82 1003.90 1004.17 1004.29 1004.17 1004.29 1004.70 1005.22 1005.34 1005.70 1006.09 1006.38 1006.90 1007.17 1007.66 1008.02 1008.38 1008.85 1009.22 1009.66 1009.97 1010.46 1010.78 1010.82 1010.93 1011.14 1011.34 1011.53 1011.73 1012.02 1012.22 1012.29 1012.34 1012.49 1012.61 1012.78 1012.90 1012.93 1013.02 1013.09 1013.26 1013.26 1013.26 1013.29 1013.26 1013.26 1013.17 1013.02 1012.90 1012.93 1012.90 1012.97 1013.05 1013.17 1013.38
1003.02 1002.93 1003.02 1002.90 1003.14 1003.41 1003.46 1003.66 1003.58 1003.66 1003.70 1003.46 1003.90 1004.22 1004.38 1004.78 1005.02 1005.53 1006.02 1006.26 1006.61 1007.14 1007.41 1007.85 1008.34 1008.85 1009.26 1009.66 1010.09 1010.41 1010.49 1010.66 1010.82 1010.97 1011.17 1011.41 1011.66 1011.90 1012.02 1012.09 1012.17 1012.38 1012.49 1012.66 1012.66 1012.61 1012.73 1012.85 1012.85 1012.97 1013.02 1012.97 1012.97 1012.97 1012.97 1012.73 1012.66 1012.73 1012.78 1012.85 1012.97 1013.14 1013.22
1001.85 1002.14 1002.09 1002.17 1002.17 1002.38 1002.49 1002.49 1002.78 1002.78 1002.93 1003.38 1003.61 1003.97 1004.26 1004.58 1004.93 1005.38 1006.02 1006.49 1006.85 1007.26 1007.82 1008.22 1009.02 1009.53 1010.05 1010.41 1010.05 1010.17 1010.26 1010.38 1010.58 1010.82 1011.02 1011.17 1011.46 1011.66 1011.73 1011.82 1012.02 1012.26 1012.41 1012.70 1012.73 1012.85 1012.93 1012.90 1012.93 1012.90 1012.93 1012.90 1012.82 1012.85 1012.73 1012.53 1012.41 1012.46 1012.53 1012.66 1012.78 1012.90 1012.93
1001.49 1001.38 1001.41 1001.53 1001.93 1001.85 1002.22 1002.38 1002.46 1002.66 1002.93 1003.29 1003.53 1003.58 1003.93 1004.38 1004.73 1005.26 1005.90 1006.58 1007.14 1007.46 1007.78 1007.73 1008.34 1008.73 1008.93 1009.17 1009.41 1009.66 1009.93 1010.14 1010.26 1010.49 1010.73 1010.97 1011.09 1011.14 1011.17 1011.49 1012.05 1012.41 1012.46 1012.66 1012.70 1012.70 1012.58 1012.61 1012.78 1012.82 1012.78 1012.82 1012.73 1012.66 1012.58 1012.29 1012.14 1012.26 1012.38 1012.49 1012.61 1012.58 1012.70
1001.38 1001.09 1000.93 1000.93 1001.26 1001.66 1002.02 1002.29 1002.41 1002.73 1003.09 1003.46 1003.82 1003.85 1003.93 1004.14 1004.49 1005.22 1006.14 1006.78 1007.29 1007.70 1008.17 1008.29 1008.53 1008.58 1008.58 1008.66 1008.90 1009.34 1009.70 1009.78 1009.85 1010.05 1010.29 1010.46 1010.46 1010.53 1011.14 1011.49 1011.38 1011.14 1011.34 1011.58 1011.82 1011.97 1012.02 1012.22 1012.66 1013.09 1013.70 1014.02 1013.78 1012.61 1012.34 1012.14 1012.14 1012.29 1012.41 1012.53 1012.49 1012.53 1012.61
1001.38 1001.17 1001.14 1001.17 1001.17 1000.97 1001.46 1002.17 1002.78 1003.22 1003.38 1003.53 1003.53 1003.53 1003.97 1004.46 1004.97 1005.58 1006.26 1007.02 1007.22 1007.53 1007.70 1007.82 1007.97 1007.90 1007.93 1008.26 1008.70 1009.09 1009.22 1009.26 1009.46 1009.66 1009.85 1009.93 1010.17 1010.49 1010.53 1010.61 1010.93 1011.26 1011.46 1011.58 1011.70 1011.85 1011.97 1012.09 1012.17 1012.09 1012.09 1012.29 1012.73 1012.90 1012.46 1012.14 1012.14 1012.34 1012.41 1012.38 1012.34 1012.38 1012.41
1000.90 1000.70 1000.97 1001.34 1001.46 1001.70 1002.14 1002.46 1002.70 1003.29 1003.78 1004.14 1004.58 1005.29 1006.17 1007.29 1008.26 1008.41 1008.82 1008.97 1007.85 1007.41 1007.49 1007.41 1007.46 1007.66 1007.90 1008.17 1008.49 1008.66 1008.78 1008.93 1009.14 1009.41 1009.61 1009.70 1009.82 1009.97 1010.49 1010.78 1011.05 1011.14 1011.29 1011.73 1011.90 1012.02 1012.09 1012.22 1012.34 1012.46 1012.46 1012.53 1012.46 1012.34 1012.70 1012.85 1012.58 1012.38 1012.17 1012.09 1012.17 1012.26 1012.26
1001.53 1001.61 1001.53 1001.66 1002.02 1002.26 1002.66 1002.82 1003.05 1003.26 1003.38 1003.41 1003.66 1004.05 1004.78 1005.78 1007.53 1008.58 1009.14 1010.09 1010.05 1008.46 1007.17 1007.09 1007.34 1007.49 1007.82 1008.05 1008.17 1008.29 1008.53 1008.78 1009.05 1009.22 1009.34 1009.53 1009.82 1010.29 1010.61 1010.58 1010.61 1010.85 1011.26 1011.66 1011.70 1011.66 1011.61 1011.73 1012.02 1012.29 1012.38 1012.46 1012.22 1012.02 1012.34 1012.66 1012.90 1012.85 1012.29 1012.05 1012.05 1012.09 1012.02
1002.02 1002.22 1002.38 1002.41 1002.58 1002.46 1002.41 1003.09 1003.46 1003.97 1004.41 1004.53 1004.66 1004.93 1005.17 1005.73 1006.85 1007.58 1008.22 1009.46 1009.29 1008.26 1007.29 1007.17 1007.29 1007.46 1007.66 1007.78 1007.97 1008.14 1008.38 1008.70 1008.85 1009.05 1009.34 1009.58 1009.73 1010.05 1010.46 1010.66 1010.70 1010.73 1011.02 1011.29 1011.38 1011.49 1011.61 1011.73 1011.93 1012.17 1012.26 1012.26 1012.05 1011.73 1011.58 1011.61 1011.53 1011.82 1012.02 1012.05 1012.05 1011.93 1011.97
1002.58 1002.49 1002.73 1002.93 1002.85 1003.02 1003.05 1003.73 1004.09 1004.38 1004.61 1004.73 1005.02 1005.29 1005.53 1005.85 1006.70 1007.38 1008.26 1008.73 1008.49 1007.93 1007.22 1007.14 1007.26 1007.34 1007.49 1007.66 1007.82 1008.09 1008.41 1008.49 1008.66 1008.93 1009.17 1009.41 1009.73 1010.05 1010.41 1010.53 1010.49 1010.58 1010.66 1010.73 1011.02 1011.34 1011.58 1011.73 1011.93 1012.14 1012.02 1011.82 1011.82 1011.78 1011.70 1011.58 1011.66 1011.61 1011.73 1011.93 1011.93 1011.90 1011.90
1002.97 1003.05 1003.09 1003.14 1003.34 1003.29 1003.17 1003.46 1004.09 1004.58 1004.90 1005.09 1005.14 1005.38 1005.78 1006.05 1006.66 1007.26 1007.78 1008.26 1008.26 1007.29 1006.82 1006.82 1006.93 1007.09 1007.29 1007.53 1007.70 1007.97 1008.22 1008.49 1008.70 1008.93 1009.14 1009.38 1009.58 1009.97 1010.26 1010.29 1010.29 1010.58 1010.66 1010.73 1010.97 1011.22 1011.38 1011.41 1011.61 1011.70 1011.66 1011.70 1011.66 1011.58 1011.58 1011.49 1011.46 1011.46 1011.61 1011.70 1011.66 1011.70 1011.73
1003.41 1003.61 1003.66 1003.61 1003.66 1003.58 1003.70 1004.02 1004.29 1004.61 1005.09 1005.29 1005.17 1005.38 1005.70 1006.05 1006.49 1007.02 1007.14 1008.22 1008.02 1006.97 1007.02 1007.41 1007.58 1007.09 1007.09 1007.17 1007.46 1007.85 1008.17 1008.49 1008.85 1008.97 1009.09 1009.22 1009.34 1009.41 1009.58 1009.73 1010.14 1010.34 1010.53 1010.73 1010.90 1011.09 1011.22 1011.26 1011.41 1011.41 1011.49 1011.49 1011.49 1011.49 1011.34 1011.22 1011.09 1011.17 1011.38 1011.41 1011.41 1011.49 1011.58
1003.66 1003.78 1003.78 1003.61 1003.82 1003.82 1003.93 1004.09 1004.49 1004.82 1004.97 1005.34 1005.41 1005.41 1005.58 1005.85 1006.14 1006.26 1006.61 1008.78 1008.29 1006.78 1007.05 1007.58 1008.70 1007.73 1007.17 1007.26 1007.49 1007.82 1008.02 1008.22 1008.66 1008.93 1009.09 1009.17 1009.34 1009.41 1009.49 1009.66 1009.82 1010.05 1010.34 1010.58 1010.78 1011.02 1011.09 1011.22 1011.29 1011.38 1011.38 1011.34 1011.34 1011.29 1011.17 1010.93 1010.90 1011.02 1011.14 1011.17 1011.26 1011.29 1011.38
1004.29 1004.29 1004.38 1004.29 1004.22 1004.17 1004.17 1004.26 1004.49 1004.90 1005.14 1005.41 1005.38 1005.22 1005.29 1005.66 1006.09 1006.22 1006.29 1007.29 1008.38 1006.78 1007.05 1007.61 1007.38 1007.09 1007.34 1007.53 1007.66 1007.82 1007.93 1008.09 1008.34 1008.78 1009.17 1009.29 1009.38 1009.49 1009.61 1009.70 1009.73 1009.90 1010.09 1010.34 1010.58 1010.82 1011.02 1011.02 1011.14 1011.17 1011.14 1011.17 1011.02 1010.93 1010.82 1010.73 1010.73 1010.90 1010.97 1011.05 1011.09 1011.22 1011.38
1004.58 1004.61 1004.70 1004.66 1004.61 1004.53 1004.49 1004.53 1004.82 1005.09 1005.29 1005.53 1005.38 1005.17 1005.29 1005.66 1006.09 1005.97 1005.82 1006.41 1006.97 1006.78 1006.78 1006.82 1006.82 1007.02 1007.26 1007.53 1007.66 1007.82 1007.82 1007.93 1008.34 1008.73 1009.05 1009.38 1009.66 1010.02 1010.09 1009.93 1009.82 1009.93 1010.02 1010.34 1010.53 1010.53 1010.58 1010.66 1010.78 1010.73 1010.66 1010.58 1010.53 1010.58 1010.58 1010.53 1010.61 1010.61 1010.78 1010.85 1011.02 1011.09 1011.14
1004.61 1004.70 1004.85 1004.82 1004.78 1004.78 1004.82 1004.93 1004.93 1005.17 1005.41 1005.58 1005.53 1005.58 1005.61 1005.66 1005.70 1005.70 1005.90 1006.41 1006.53 1006.41 1006.38 1006.46 1006.66 1006.90 1007.17 1007.29 1007.34 1007.53 1007.85 1008.09 1008.34 1008.58 1008.90 1009.26 1009.53 1010.05 1010.70 1011.29 1011.34 1011.14 1010.61 1010.53 1011.22 1011.34 1011.17 1010.90 1010.38 1010.26 1010.17 1010.22 1010.17 1010.26 1010.17 1010.22 1010.26 1010.53 1010.82 1011.02 1011.17 1011.38 1011.38
1004.53 1004.78 1004.90 1004.90 1004.97 1005.05 1005.02 1005.02 1005.05 1005.05 1005.14 1005.17 1005.26 1005.46 1005.73 1005.85 1005.90 1006.05 1006.09 1006.26 1006.26 1006.17 1006.58 1006.93 1006.97 1007.26 1007.38 1007.41 1007.41 1007.41 1007.58 1007.90 1008.26 1008.53 1008.70 1009.09 1009.38 1009.70 1009.85 1010.53 1011.26 1011.53 1011.66 1011.66 1011.66 1011.46 1011.09 1011.02 1010.66 1010.49 1010.29 1010.09 1010.02 1010.46 1010.58 1010.38 1010.41 1010.61 1010.93 1011.14 1011.29 1011.38 1011.38
1004.49 1004.49 1004.61 1004.70 1004.70 1004.85 1005.02 1005.02 1004.97 1004.82 1004.82 1004.97 1005.09 1005.22 1005.38 1005.73 1005.90 1005.93 1006.05 1005.78 1005.73 1006.34 1006.85 1006.93 1006.97 1007.29 1007.34 1007.29 1007.26 1007.22 1007.38 1007.73 1008.05 1008.38 1008.66 1009.09 1009.38 1009.53 1009.73 1009.93 1010.26 1010.97 1011.58 1011.73 1011.58 1011.34 1011.05 1010.78 1010.53 1010.41 1010.41 1010.34 1010.22 1010.26 1010.61 1010.97 1011.09 1011.14 1011.17 1011.26 1011.38 1011.38 1011.49
Thickness
5846 5845 5844 5843 5842 5840 5838 5836 5833 5829 5825 5822 5820 5818 5815 5812 5810 5806 5801 5798 5795 5791 5789 5788 5786 5784 5782 5780 5778 5775 5773 5771 5769 5767 5765 5761 5759 5756 5753 5751 5749 5747 5746 5743 5741 5739 5738 5737 5735 5734 5732 5730 5729 5728 5726 5724 5721 5719 5716 5714 5711 5708 5706
5845 5843 5842 5842 5841 5841 5838 5837 5835 5831 5827 5823 5820 5818 5815 5813 5810 5807 5802 5798 5795 5792 5789 5787 5785 5783 5781 5779 5776 5773 5770 5769 5767 5766 5763 5760 5757 5755 5752 5750 5748 5746 5744 5742 5740 5738 5736 5735 5733 5731 5729 5728 5727 5726 5724 5722 5719 5717 5714 5712 5709 5706 5703
5844 5842 5843 5842 5841 5840 5838 5836 5834 5832 5828 5824 5821 5818 5815 5814 5813 5809 5805 5800 5795 5792 5789 5786 5784 5782 5781 5778 5774 5772 5770 5767 5765 5764 5761 5759 5756 5754 5752 5749 5747 5745 5743 5741 5739 5737 5735 5733 5731 5729 5727 5725 5724 5723 5722 5720 5717 5715 5712 5710 5707 5704 5701
5844 5845 5844 5843 5843 5841 5839 5837 5834 5831 5829 5826 5824 5821 5818 5816 5814 5811 5807 5802 5797 5792 5788 5786 5784 5782 5779 5777 5774 5771 5769 5766 5763 5762 5760 5759 5757 5754 5751 5748 5746 5744 5742 5740 5738 5735 5733 5731 5729 5727 5725 5724 5722 5721 5720 5718 5715 5713 5710 5707 5704 5702 5699
5844 5844 5841 5840 5840 5838 5837 5837 5834 5832 5829 5826 5825 5822 5820 5817 5814 5811 5807 5804 5800 5794 5791 5788 5785 5783 5779 5777 5775 5771 5769 5766 5763 5761 5759 5758 5757 5754 5752 5748 5745 5743 5740 5738 5736 5733 5731 5729 5726 5724 5723 5722 5720 5719 5718 5715 5713 5710 5707 5705 5701 5699 5697
5840 5839 5838 5838 5839 5837 5837 5835 5834 5834 5831 5827 5825 5822 5819 5816 5812 5810 5807 5804 5801 5796 5791 5788 5785 5783 5779 5777 5775 5771 5768 5765 5762 5760 5758 5757 5756 5753 5751 5748 5744 5741 5738 5736 5733 5731 5728 5726 5724 5722 5721 5720 5718 5716 5714 5712 5710 5708 5705 5702 5699 5697 5694
5839 5838 5838 5840 5840 5838 5837 5835 5834 5834 5832 5830 5826 5821 5818 5815 5812 5810 5807 5803 5800 5795 5791 5787 5785 5782 5779 5777 5774 5770 5767 5764 5762 5760 5757 5755 5754 5751 5750 5747 5744 5740 5737 5733 5731 5728 5726 5724 5722 5720 5718 5717 5715 5713 5711 5709 5707 5705 5702 5699 5695 5693 5691
5844 5841 5840 5841 5842 5840 5837 5835 5834 5832 5830 5826 5823 5819 5817 5814 5811 5809 5805 5802 5799 5795 5791 5787 5785 5782 5779 5775 5772 5769 5767 5764 5761 5758 5755 5752 5751 5749 5748 5745 5742 5739 5734 5731 5729 5727 5724 5722 5720 5718 5715 5713 5711 5710 5709 5707 5704 5702 5699 5695 5692 5690 5689
5847 5844 5844 5844 5843 5842 5839 5836 5834 5830 5827 5824 5821 5819 5816 5813 5811 5808 5805 5802 5798 5794 5791 5788 5784 5781 5777 5773 5770 5768 5766 5763 5759 5755 5753 5751 5750 5748 5746 5743 5740 5737 5732 5729 5727 5725 5722 5720 5718 5715 5713 5711 5709 5708 5706 5703 5701 5698 5695 5692 5689 5687 5686
5846 5842 5843 5842 5842 5841 5838 5835 5831 5828 5824 5821 5820 5818 5815 5813 5810 5808 5805 5801 5797 5794 5791 5788 5783 5778 5775 5771 5768 5766 5763 5760 5757 5755 5752 5750 5749 5748 5745 5741 5738 5734 5730 5728 5726 5723 5721 5719 5717 5714 5711 5709 5707 5705 5703 5700 5698 5696 5693 5690 5687 5685 5682
5844 5841 5839 5838 5837 5835 5833 5831 5828 5825 5824 5822 5820 5817 5816 5813 5810 5807 5804 5801 5798 5794 5791 5788 5783 5777 5773 5768 5765 5763 5760 5758 5757 5754 5752 5749 5747 5747 5744 5740 5735 5732 5729 5726 5724 5721 5720 5717 5715 5713 5710 5707 5706 5703 5700 5698 5696 5692 5690 5687 5684 5682 5680
5842 5840 5837 5836 5834 5832 5831 5830 5828 5826 5825 5822 5821 5818 5815 5812 5809 5807 5803 5800 5798 5795 5790 5787 5783 5777 5771 5766 5763 5760 5759 5757 5756 5753 5751 5748 5745 5745 5743 5738 5734 5730 5727 5725 5723 5720 5717 5715 5713 5710 5708 5706 5704 5701 5698 5696 5693 5689 5687 5684 5681 5679 5676
5844 5841 5837 5836 5834 5831 5830 5829 5827 5827 5825 5823 5822 5819 5816 5813 5810 5806 5802 5799 5797 5794 5790 5786 5781 5776 5769 5765 5762 5760 5758 5757 5754 5752 5750 5746 5744 5743 5741 5737 5732 5728 5726 5723 5720 5717 5714 5712 5709 5708 5706 5704 5703 5700 5696 5694 5690 5687 5684 5681 5679 5676 5673
5843 5839 5836 5834 5832 5831 5830 5828 5827 5826 5824 5823 5820 5818 5815 5813 5810 5807 5803 5798 5796 5793 5788 5784 5779 5773 5768 5764 5762 5759 5757 5755 5752 5752 5748 5745 5743 5741 5738 5735 5730 5727 5724 5720 5717 5713 5711 5709 5707 5705 5704 5701 5700 5697 5694 5691 5687 5684 5681 5679 5676 5673 5670
5841 5839 5835 5832 5831 5832 5832 5830 5829 5826 5823 5821 5818 5815 5813 5810 5807 5805 5801 5797 5795 5791 5788 5783 5776 5771 5768 5764 5760 5757 5755 5753 5751 5750 5747 5744 5742 5739 5736 5733 5728 5725 5721 5718 5714 5711 5709 5707 5705 5702 5699 5698 5696 5693 5691 5687 5684 5682 5679 5676 5673 5670 5668
5839 5840 5838 5834 5833 5832 5832 5832 5832 5829 5825 5821 5816 5813 5810 5808 5806 5804 5799 5797 5794 5790 5787 5782 5774 5770 5767 5762 5758 5755 5754 5752 5750 5747 5744 5742 5740 5737 5734 5730 5726 5723 5719 5715 5713 5710 5708 5705 5702 5699 5696 5694 5691 5690 5688 5685 5682 5680 5677 5674 5672 5669 5666
5835 5837 5837 5836 5835 5833 5833 5833 5831 5828 5824 5820 5818 5815 5811 5809 5806 5803 5800 5797 5793 5790 5787 5781 5775 5770 5766 5762 5758 5755 5753 5750 5748 5745 5742 5740 5738 5735 5732 5728 5724 5721 5716 5714 5711 5708 5706 5703 5699 5696 5694 5691 5688 5685 5684 5682 5680 5678 5674 5672 5669 5667 5664
5831 5832 5833 5833 5833 5833 5832 5831 5829 5825 5823 5821 5818 5816 5812 5809 5805 5801 5798 5795 5792 5790 5785 5779 5774 5769 5764 5761 5757 5754 5751 5748 5746 5743 5740 5738 5736 5733 5729 5724 5721 5717 5713 5711 5709 5706 5705 5701 5697 5694 5692 5688 5684 5682 5681 5680 5679 5676 5672 5669 5667 5665 5662
5828 5827 5828 5827 5828 5829 5830 5830 5829 5826 5824 5822 5818 5816 5815 5812 5806 5801 5798 5795 5791 5788 5783 5777 5772 5767 5764 5761 5756 5753 5749 5747 5744 5741 5738 5736 5734 5729 5725 5721 5717 5714 5710 5707 5706 5703 5701 5698 5695 5692 5689 5685 5681 5678 5677 5676 5676 5674 5670 5668 5666 5663 5660
5827 5826 5826 5824 5824 5825 5826 5828 5829 5828 5825 5823 5820 5819 5816 5811 5806 5802 5798 5793 5788 5784 5779 5773 5769 5765 5762 5759 5755 5751 5747 5744 5743 5739 5736 5734 5729 5725 5721 5716 5713 5710 5707 5704 5702 5699 5697 5694 5690 5687 5685 5681 5677 5674 5674 5673 5672 5671 5669 5667 5665 5661 5658
5827 5827 5827 5826 5825 5824 5823 5824 5825 5824 5823 5821 5819 5817 5812 5807 5803 5798 5793 5789 5784 5779 5775 5770 5765 5762 5759 5755 5752 5747 5743 5742 5740 5736 5732 5729 5725 5720 5716 5713 5710 5706 5703 5701 5698 5696 5693 5690 5687 5685 5682 5679 5675 5673 5671 5669 5669 5667 5665 5664 5661 5658 5655
5829 5829 5830 5831 5828 5826 5824 5823 5823 5822 5821 5819 5815 5812 5807 5803 5799 5793 5787 5784 5780 5774 5769 5763 5757 5754 5750 5747 5745 5742 5740 5739 5736 5731 5728 5724 5720 5716 5712 5710 5707 5703 5700 5697 5694 5692 5690 5687 5684 5682 5678 5675 5672 5670 5668 5667 5665 5662 5661 5660 5658 5656 5653
5834 5833 5833 5834 5832 5830 5828 5825 5824 5823 5820 5816 5812 5808 5804 5799 5795 5789 5782 5778 5774 5768 5763 5758 5751 5746 5743 5740 5740 5740 5738 5735 5730 5727 5724 5720 5716 5713 5711 5708 5703 5699 5695 5690 5688 5686 5684 5682 5680 5677 5673 5670 5668 5668 5666 5664 5663 5660 5658 5657 5656 5654 5651
5836 5837 5836 5835 5832 5830 5827 5823 5822 5820 5815 5811 5808 5804 5800 5794 5789 5784 5776 5769 5765 5761 5758 5754 5748 5744 5743 5742 5741 5738 5734 5730 5727 5723 5720 5717 5715 5713 5709 5704 5699 5696 5693 5688 5686 5684 5682 5680 5676 5671 5667 5663 5662 5665 5665 5663 5661 5658 5655 5654 5652 5651 5648
5833 5835 5836 5835 5833 5830 5827 5822 5818 5814 5810 5806 5803 5799 5796 5791 5786 5778 5767 5759 5756 5753 5751 5748 5745 5743 5744 5742 5739 5734 5729 5727 5725 5722 5719 5717 5715 5712 5706 5702 5699 5699 5695 5691 5687 5686 5683 5678 5673 5668 5664 5657 5655 5659 5662 5661 5658 5655 5651 5649 5648 5646 5644
5832 5833 5833 5831 5830 5829 5825 5819 5814 5809 5804 5800 5797 5792 5785 5778 5771 5761 5750 5746 5747 5747 5746 5745 5744 5743 5742 5739 5735 5730 5728 5726 5724 5721 5719 5717 5714 5710 5706 5702 5699 5696 5692 5688 5685 5682 5679 5676 5672 5669 5667 5661 5656 5655 5656 5654 5653 5650 5647 5645 5643 5641 5640
5827 5828 5827 5824 5822 5820 5816 5811 5807 5803 5798 5795 5789 5781 5771 5759 5748 5740 5733 5730 5732 5738 5741 5742 5741 5740 5738 5734 5732 5729 5728 5726 5723 5720 5718 5715 5711 5707 5703 5699 5696 5692 5688 5684 5680 5679 5676 5673 5669 5665 5662 5659 5656 5653 5649 5646 5644 5643 5642 5641 5639 5637 5636
5819 5818 5817 5815 5813 5811 5808 5804 5801 5797 5792 5789 5785 5777 5770 5759 5745 5736 5730 5724 5720 5726 5735 5738 5737 5736 5734 5732 5731 5729 5726 5724 5720 5718 5715 5712 5708 5703 5698 5695 5693 5689 5685 5680 5677 5676 5674 5670 5666 5661 5656 5653 5652 5652 5649 5644 5641 5639 5637 5636 5634 5633 5632
5809 5807 5806 5805 5803 5803 5802 5796 5791 5786 5781 5778 5774 5769 5765 5759 5747 5738 5731 5722 5717 5723 5731 5733 5732 5731 5731 5730 5729 5727 5723 5720 5718 5715 5711 5707 5704 5699 5695 5692 5690 5687 5683 5679 5676 5673 5669 5665 5660 5655 5652 5650 5648 5648 5647 5644 5642 5638 5634 5631 5629 5627 5627
5799 5797 5796 5795 5792 5794 5793 5787 5781 5777 5772 5769 5766 5760 5756 5751 5743 5735 5727 5719 5717 5723 5728 5729 5728 5728 5728 5728 5726 5723 5719 5716 5714 5710 5707 5704 5700 5695 5691 5689 5687 5685 5682 5678 5674 5668 5663 5660 5655 5651 5649 5647 5645 5643 5641 5639 5637 5634 5629 5626 5623 5622 5621
5788 5787 5787 5786 5784 5784 5784 5780 5775 5770 5765 5762 5760 5756 5751 5746 5738 5732 5726 5718 5717 5721 5725 5725 5725 5725 5724 5724 5723 5719 5715 5711 5708 5705 5703 5700 5696 5692 5689 5686 5683 5679 5676 5673 5669 5663 5659 5655 5651 5648 5646 5643 5640 5638 5636 5634 5633 5629 5625 5622 5619 5617 5616
5779 5778 5778 5777 5776 5775 5774 5771 5768 5763 5759 5756 5755 5752 5748 5742 5736 5732 5725 5714 5712 5720 5722 5716 5714 5717 5719 5721 5719 5715 5711 5706 5702 5699 5698 5696 5693 5689 5685 5682 5678 5674 5670 5666 5661 5657 5653 5650 5646 5643 5641 5639 5637 5634 5632 5631 5629 5625 5621 5618 5616 5614 5612
5770 5770 5769 5769 5768 5767 5766 5764 5760 5756 5752 5750 5749 5748 5745 5739 5735 5735 5727 5713 5708 5717 5718 5709 5706 5710 5713 5714 5712 5709 5706 5702 5698 5695 5693 5690 5687 5683 5680 5677 5674 5669 5664 5660 5655 5651 5647 5644 5641 5639 5637 5635 5633 5630 5629 5628 5625 5621 5617 5614 5612 5610 5607
5760 5760 5759 5759 5759 5759 5758 5757 5753 5749 5745 5743 5743 5743 5742 5737 5731 5731 5731 5720 5712 5714 5714 5709 5708 5709 5707 5706 5705 5703 5701 5699 5694 5691 5687 5683 5680 5677 5674 5672 5669 5664 5660 5655 5651 5648 5644 5641 5638 5636 5634 5633 5630 5628 5625 5624 5620 5617 5613 5610 5608 5606 5603
5753 5752 5751 5751 5751 5750 5750 5749 5746 5742 5738 5736 5737 5738 5737 5733 5727 5727 5728 5721 5714 5715 5714 5710 5709 5708 5703 5701 5701 5698 5695 5693 5690 5685 5681 5677 5673 5668 5665 5663 5661 5659 5656 5651 5646 5643 5641 5638 5636 5634 5632 5631 5628 5625 5622 5619 5615 5612 5609 5605 5602 5600 5599
5746 5745 5744 5745 5743 5743 5742 5741 5739 5737 5733 5730 5731 5731 5729 5726 5724 5723 5720 5714 5711 5712 5711 5706 5704 5701 5697 5697 5695 5691 5689 5686 5683 5680 5676 5671 5666 5661 5656 5651 5648 5647 5646 5642 5638 5635 5633 5632 5632 5630 5628 5627 5624 5620 5618 5615 5612 5608 5603 5599 5595 5592 5591
5741 5740 5739 5738 5737 5736 5735 5734 5733 5732 5731 5728 5727 5725 5722 5720 5718 5716 5713 5711 5710 5708 5702 5697 5695 5692 5690 5690 5689 5687 5685 5681 5678 5675 5671 5666 5661 5657 5652 5647 5641 5636 5634 5632 5629 5628 5627 5627 5626 5624 5622 5621 5619 5615 5611 5609 5606 5601 5597 5593 5590 5586 5584
5736 5736 5734 5733 5732 5731 5729 5729 5728 5728 5727 5725 5722 5720 5717 5714 5711 5709 5708 5708 5707 5703 5695 5691 5688 5686 5685 5685 5684 5683 5681 5677 5673 5669 5665 5660 5655 5651 5647 5644 5639 5633 5628 5624 5623 5623 5622 5621 5621 5618 5615 5614 5612 5609 5605 5602 5598 5594 5591 5587 5585 5582 5580